owner,sensor,date,latitude,longitude,vertical_datum,sea_water_temperature,qcFlag 
DISL,ioos:station:DISL:DISL:1,2019-10-01T00:00:00Z,30.2513,-88.0778,-1.72,29.76,11111222 
DISL,ioos:station:DISL:DISL:1,2019-10-01T01:00:00Z,30.2513,-88.0778,-1.72,29.49,11111222 
DISL,ioos:station:DISL:DISL:1,2019-10-01T02:00:00Z,30.2513,-88.0778,-1.72,29.58,11111222 
DISL,ioos:station:DISL:DISL:1,2019-10-01T03:00:00Z,30.2513,-88.0778,-1.72,29.61,11111222 
DISL,ioos:station:DISL:DISL:1,2019-10-01T04:00:00Z,30.2513,-88.0778,-1.72,30.41,11111222 
DISL,ioos:station:DISL:DISL:1,2019-10-01T05:00:00Z,30.2513,-88.0778,-1.72,30.31,11111222 
DISL,ioos:station:DISL:DISL:1,2019-10-01T06:00:00Z,30.2513,-88.0778,-1.72,30.22,11111222 
DISL,ioos:station:DISL:DISL:1,2019-10-01T07:00:00Z,30.2513,-88.0778,-1.72,30.13,11111222 
DISL,ioos:station:DISL:DISL:1,2019-10-01T08:00:00Z,30.2513,-88.0778,-1.72,30.01,11111222 
DISL,ioos:station:DISL:DISL:1,2019-10-01T09:00:00Z,30.2513,-88.0778,-1.72,29.95,11111222 
DISL,ioos:station:DISL:DISL:1,2019-10-01T10:00:00Z,30.2513,-88.0778,-1.72,29.82,11111222 
DISL,ioos:station:DISL:DISL:1,2019-10-01T11:00:00Z,30.2513,-88.0778,-1.72,29.65,11111222 
DISL,ioos:station:DISL:DISL:1,2019-10-01T12:00:00Z,30.2513,-88.0778,-1.72,29.31,11111222 
DISL,ioos:station:DISL:DISL:1,2019-10-01T13:00:00Z,30.2513,-88.0778,-1.72,29.12,11111222 
DISL,ioos:station:DISL:DISL:1,2019-10-01T14:00:00Z,30.2513,-88.0778,-1.72,29.32,11111222 
DISL,ioos:station:DISL:DISL:1,2019-10-01T15:00:00Z,30.2513,-88.0778,-1.72,29.43,11111222 
DISL,ioos:station:DISL:DISL:1,2019-10-01T16:00:00Z,30.2513,-88.0778,-1.72,29.6,11111222 
DISL,ioos:station:DISL:DISL:1,2019-10-01T17:00:00Z,30.2513,-88.0778,-1.72,29.59,11111222 
DISL,ioos:station:DISL:DISL:1,2019-10-01T18:00:00Z,30.2513,-88.0778,-1.72,29.81,11111222 
DISL,ioos:station:DISL:DISL:1,2019-10-01T19:00:00Z,30.2513,-88.0778,-1.72,29.7,11111222 
DISL,ioos:station:DISL:DISL:1,2019-10-01T20:00:00Z,30.2513,-88.0778,-1.72,30.05,11111222 
DISL,ioos:station:DISL:DISL:1,2019-10-01T21:00:00Z,30.2513,-88.0778,-1.72,30.2,11111222 
DISL,ioos:station:DISL:DISL:1,2019-10-01T22:00:00Z,30.2513,-88.0778,-1.72,30.46,11111222 
DISL,ioos:station:DISL:DISL:1,2019-10-01T23:00:00Z,30.2513,-88.0778,-1.72,30.79,11111222 
DISL,ioos:station:DISL:DISL:1,2019-10-02T00:00:00Z,30.2513,-88.0778,-1.72,30.93,11111222 
DISL,ioos:station:DISL:DISL:1,2019-10-02T01:00:00Z,30.2513,-88.0778,-1.72,29.92,11111222 
DISL,ioos:station:DISL:DISL:1,2019-10-02T02:00:00Z,30.2513,-88.0778,-1.72,29.75,11111222 
DISL,ioos:station:DISL:DISL:1,2019-10-02T03:00:00Z,30.2513,-88.0778,-1.72,29.74,11111222 
DISL,ioos:station:DISL:DISL:1,2019-10-02T04:00:00Z,30.2513,-88.0778,-1.72,30.67,11111222 
DISL,ioos:station:DISL:DISL:1,2019-10-02T05:00:00Z,30.2513,-88.0778,-1.72,30.54,11111222 
DISL,ioos:station:DISL:DISL:1,2019-10-02T06:00:00Z,30.2513,-88.0778,-1.72,30.35,11111222 
DISL,ioos:station:DISL:DISL:1,2019-10-02T07:00:00Z,30.2513,-88.0778,-1.72,30.19,11111222 
DISL,ioos:station:DISL:DISL:1,2019-10-02T08:00:00Z,30.2513,-88.0778,-1.72,30.05,11111222 
DISL,ioos:station:DISL:DISL:1,2019-10-02T09:00:00Z,30.2513,-88.0778,-1.72,30.0,11111222 
DISL,ioos:station:DISL:DISL:1,2019-10-02T10:00:00Z,30.2513,-88.0778,-1.72,29.96,11111222 
DISL,ioos:station:DISL:DISL:1,2019-10-02T11:00:00Z,30.2513,-88.0778,-1.72,29.92,11111222 
DISL,ioos:station:DISL:DISL:1,2019-10-02T12:00:00Z,30.2513,-88.0778,-1.72,29.87,11111222 
DISL,ioos:station:DISL:DISL:1,2019-10-02T13:00:00Z,30.2513,-88.0778,-1.72,29.69,11111222 
DISL,ioos:station:DISL:DISL:1,2019-10-02T14:00:00Z,30.2513,-88.0778,-1.72,29.86,11111222 
DISL,ioos:station:DISL:DISL:1,2019-10-02T15:00:00Z,30.2513,-88.0778,-1.72,29.57,11111222 
DISL,ioos:station:DISL:DISL:1,2019-10-02T16:00:00Z,30.2513,-88.0778,-1.72,29.78,11111222 
DISL,ioos:station:DISL:DISL:1,2019-10-02T17:00:00Z,30.2513,-88.0778,-1.72,30.08,11111222 
DISL,ioos:station:DISL:DISL:1,2019-10-02T18:00:00Z,30.2513,-88.0778,-1.72,30.03,11111222 
DISL,ioos:station:DISL:DISL:1,2019-10-02T19:00:00Z,30.2513,-88.0778,-1.72,30.41,11111222 
DISL,ioos:station:DISL:DISL:1,2019-10-02T20:00:00Z,30.2513,-88.0778,-1.72,30.41,11111222 
DISL,ioos:station:DISL:DISL:1,2019-10-02T21:00:00Z,30.2513,-88.0778,-1.72,30.39,11111222 
DISL,ioos:station:DISL:DISL:1,2019-10-02T22:00:00Z,30.2513,-88.0778,-1.72,30.56,11111222 
DISL,ioos:station:DISL:DISL:1,2019-10-02T23:00:00Z,30.2513,-88.0778,-1.72,30.55,11111222 
DISL,ioos:station:DISL:DISL:1,2019-10-02T23:30:00Z,30.2513,-88.0778,-1.72,30.54,11111222 
DISL,ioos:station:DISL:DISL:1,2019-10-03T01:00:00Z,30.2513,-88.0778,-1.72,30.76,11111222 
DISL,ioos:station:DISL:DISL:1,2019-10-03T02:00:00Z,30.2513,-88.0778,-1.72,30.91,11111222 
DISL,ioos:station:DISL:DISL:1,2019-10-03T03:00:00Z,30.2513,-88.0778,-1.72,30.92,11111222 
DISL,ioos:station:DISL:DISL:1,2019-10-03T04:00:00Z,30.2513,-88.0778,-1.72,30.82,11111222 
DISL,ioos:station:DISL:DISL:1,2019-10-03T05:00:00Z,30.2513,-88.0778,-1.72,30.74,11111222 
DISL,ioos:station:DISL:DISL:1,2019-10-03T06:00:00Z,30.2513,-88.0778,-1.72,30.55,11111222 
DISL,ioos:station:DISL:DISL:1,2019-10-03T07:00:00Z,30.2513,-88.0778,-1.72,30.41,11111222 
DISL,ioos:station:DISL:DISL:1,2019-10-03T08:00:00Z,30.2513,-88.0778,-1.72,30.32,11111222 
DISL,ioos:station:DISL:DISL:1,2019-10-03T09:00:00Z,30.2513,-88.0778,-1.72,30.23,11111222 
DISL,ioos:station:DISL:DISL:1,2019-10-03T10:00:00Z,30.2513,-88.0778,-1.72,30.16,11111222 
DISL,ioos:station:DISL:DISL:1,2019-10-03T11:00:00Z,30.2513,-88.0778,-1.72,30.0,11111222 
DISL,ioos:station:DISL:DISL:1,2019-10-03T12:00:00Z,30.2513,-88.0778,-1.72,29.83,11111222 
DISL,ioos:station:DISL:DISL:1,2019-10-03T13:00:00Z,30.2513,-88.0778,-1.72,29.67,11111222 
DISL,ioos:station:DISL:DISL:1,2019-10-03T14:00:00Z,30.2513,-88.0778,-1.72,29.68,11111222 
DISL,ioos:station:DISL:DISL:1,2019-10-03T15:00:00Z,30.2513,-88.0778,-1.72,29.95,11111222 
DISL,ioos:station:DISL:DISL:1,2019-10-03T16:00:00Z,30.2513,-88.0778,-1.72,29.83,11111222 
DISL,ioos:station:DISL:DISL:1,2019-10-03T17:00:00Z,30.2513,-88.0778,-1.72,29.98,11111222 
DISL,ioos:station:DISL:DISL:1,2019-10-03T18:00:00Z,30.2513,-88.0778,-1.72,30.26,11111222 
DISL,ioos:station:DISL:DISL:1,2019-10-03T19:00:00Z,30.2513,-88.0778,-1.72,30.3,11111222 
DISL,ioos:station:DISL:DISL:1,2019-10-03T20:00:00Z,30.2513,-88.0778,-1.72,29.91,11111222 
DISL,ioos:station:DISL:DISL:1,2019-10-03T21:00:00Z,30.2513,-88.0778,-1.72,30.72,11111222 
DISL,ioos:station:DISL:DISL:1,2019-10-03T22:00:00Z,30.2513,-88.0778,-1.72,30.48,11111222 
DISL,ioos:station:DISL:DISL:1,2019-10-03T23:00:00Z,30.2513,-88.0778,-1.72,30.57,11111222 
DISL,ioos:station:DISL:DISL:1,2019-10-03T23:30:00Z,30.2513,-88.0778,-1.72,30.59,11111222 
DISL,ioos:station:DISL:DISL:1,2019-10-04T01:00:00Z,30.2513,-88.0778,-1.72,30.78,11111222 
DISL,ioos:station:DISL:DISL:1,2019-10-04T02:00:00Z,30.2513,-88.0778,-1.72,30.86,11111222 
DISL,ioos:station:DISL:DISL:1,2019-10-04T03:00:00Z,30.2513,-88.0778,-1.72,30.89,11111222 
DISL,ioos:station:DISL:DISL:1,2019-10-04T04:00:00Z,30.2513,-88.0778,-1.72,30.81,11111222 
DISL,ioos:station:DISL:DISL:1,2019-10-04T05:00:00Z,30.2513,-88.0778,-1.72,30.73,11111222 
DISL,ioos:station:DISL:DISL:1,2019-10-04T06:00:00Z,30.2513,-88.0778,-1.72,30.66,11111222 
DISL,ioos:station:DISL:DISL:1,2019-10-04T07:00:00Z,30.2513,-88.0778,-1.72,30.6,11111222 
DISL,ioos:station:DISL:DISL:1,2019-10-04T08:00:00Z,30.2513,-88.0778,-1.72,30.42,11111222 
DISL,ioos:station:DISL:DISL:1,2019-10-04T09:00:00Z,30.2513,-88.0778,-1.72,30.32,11111222 
DISL,ioos:station:DISL:DISL:1,2019-10-04T10:00:00Z,30.2513,-88.0778,-1.72,30.25,11111222 
DISL,ioos:station:DISL:DISL:1,2019-10-04T11:00:00Z,30.2513,-88.0778,-1.72,30.16,11111222 
DISL,ioos:station:DISL:DISL:1,2019-10-04T12:00:00Z,30.2513,-88.0778,-1.72,30.15,11111222 
DISL,ioos:station:DISL:DISL:1,2019-10-04T13:00:00Z,30.2513,-88.0778,-1.72,30.11,11111222 
DISL,ioos:station:DISL:DISL:1,2019-10-04T14:00:00Z,30.2513,-88.0778,-1.72,29.89,11111222 
DISL,ioos:station:DISL:DISL:1,2019-10-04T15:00:00Z,30.2513,-88.0778,-1.72,30.03,11111222 
DISL,ioos:station:DISL:DISL:1,2019-10-04T16:00:00Z,30.2513,-88.0778,-1.72,30.21,11111222 
DISL,ioos:station:DISL:DISL:1,2019-10-04T17:00:00Z,30.2513,-88.0778,-1.72,30.62,11111222 
DISL,ioos:station:DISL:DISL:1,2019-10-04T18:00:00Z,30.2513,-88.0778,-1.72,30.95,11111222 
DISL,ioos:station:DISL:DISL:1,2019-10-04T19:00:00Z,30.2513,-88.0778,-1.72,31.09,11111222 
DISL,ioos:station:DISL:DISL:1,2019-10-04T20:00:00Z,30.2513,-88.0778,-1.72,31.03,11111222 
DISL,ioos:station:DISL:DISL:1,2019-10-04T21:00:00Z,30.2513,-88.0778,-1.72,30.36,11111222 
DISL,ioos:station:DISL:DISL:1,2019-10-04T22:00:00Z,30.2513,-88.0778,-1.72,30.41,11111222 
DISL,ioos:station:DISL:DISL:1,2019-10-04T23:00:00Z,30.2513,-88.0778,-1.72,30.84,11111222 
DISL,ioos:station:DISL:DISL:1,2019-10-05T00:00:00Z,30.2513,-88.0778,-1.72,31.06,11111222 
DISL,ioos:station:DISL:DISL:1,2019-10-05T01:00:00Z,30.2513,-88.0778,-1.72,31.08,11111222 
DISL,ioos:station:DISL:DISL:1,2019-10-05T02:00:00Z,30.2513,-88.0778,-1.72,31.07,11111222 
DISL,ioos:station:DISL:DISL:1,2019-10-05T03:00:00Z,30.2513,-88.0778,-1.72,30.9,11111222 
DISL,ioos:station:DISL:DISL:1,2019-10-05T04:00:00Z,30.2513,-88.0778,-1.72,30.73,11111222 
DISL,ioos:station:DISL:DISL:1,2019-10-05T05:00:00Z,30.2513,-88.0778,-1.72,30.59,11111222 
DISL,ioos:station:DISL:DISL:1,2019-10-05T06:00:00Z,30.2513,-88.0778,-1.72,30.51,11111222 
DISL,ioos:station:DISL:DISL:1,2019-10-05T07:00:00Z,30.2513,-88.0778,-1.72,30.02,11111222 
DISL,ioos:station:DISL:DISL:1,2019-10-05T08:00:00Z,30.2513,-88.0778,-1.72,30.25,11111222 
DISL,ioos:station:DISL:DISL:1,2019-10-05T09:00:00Z,30.2513,-88.0778,-1.72,30.25,11111222 
DISL,ioos:station:DISL:DISL:1,2019-10-05T10:00:00Z,30.2513,-88.0778,-1.72,30.15,11111222 
DISL,ioos:station:DISL:DISL:1,2019-10-05T11:00:00Z,30.2513,-88.0778,-1.72,30.0,11111222 
DISL,ioos:station:DISL:DISL:1,2019-10-05T12:00:00Z,30.2513,-88.0778,-1.72,29.9,11111222 
DISL,ioos:station:DISL:DISL:1,2019-10-05T13:00:00Z,30.2513,-88.0778,-1.72,29.61,11111222 
DISL,ioos:station:DISL:DISL:1,2019-10-05T14:00:00Z,30.2513,-88.0778,-1.72,29.63,11111222 
DISL,ioos:station:DISL:DISL:1,2019-10-05T15:00:00Z,30.2513,-88.0778,-1.72,29.7,11111222 
DISL,ioos:station:DISL:DISL:1,2019-10-05T16:00:00Z,30.2513,-88.0778,-1.72,29.84,11111222 
DISL,ioos:station:DISL:DISL:1,2019-10-05T17:00:00Z,30.2513,-88.0778,-1.72,29.98,11111222 
DISL,ioos:station:DISL:DISL:1,2019-10-05T18:00:00Z,30.2513,-88.0778,-1.72,30.23,11111222 
DISL,ioos:station:DISL:DISL:1,2019-10-05T19:00:00Z,30.2513,-88.0778,-1.72,30.4,11111222 
DISL,ioos:station:DISL:DISL:1,2019-10-05T20:00:00Z,30.2513,-88.0778,-1.72,30.32,11111222 
DISL,ioos:station:DISL:DISL:1,2019-10-05T21:00:00Z,30.2513,-88.0778,-1.72,30.27,11111222 
DISL,ioos:station:DISL:DISL:1,2019-10-05T22:00:00Z,30.2513,-88.0778,-1.72,30.39,11111222 
DISL,ioos:station:DISL:DISL:1,2019-10-05T23:00:00Z,30.2513,-88.0778,-1.72,30.38,11111222 
DISL,ioos:station:DISL:DISL:1,2019-10-06T00:00:00Z,30.2513,-88.0778,-1.72,30.41,11111222 
DISL,ioos:station:DISL:DISL:1,2019-10-06T01:00:00Z,30.2513,-88.0778,-1.72,30.33,11111222 
DISL,ioos:station:DISL:DISL:1,2019-10-06T02:00:00Z,30.2513,-88.0778,-1.72,30.23,11111222 
DISL,ioos:station:DISL:DISL:1,2019-10-06T03:00:00Z,30.2513,-88.0778,-1.72,30.15,11111222 
DISL,ioos:station:DISL:DISL:1,2019-10-06T04:00:00Z,30.2513,-88.0778,-1.72,30.07,11111222 
DISL,ioos:station:DISL:DISL:1,2019-10-06T05:00:00Z,30.2513,-88.0778,-1.72,29.89,11111222 
DISL,ioos:station:DISL:DISL:1,2019-10-06T06:00:00Z,30.2513,-88.0778,-1.72,30.04,11111222 
DISL,ioos:station:DISL:DISL:1,2019-10-06T07:00:00Z,30.2513,-88.0778,-1.72,29.8,11111222 
DISL,ioos:station:DISL:DISL:1,2019-10-06T08:00:00Z,30.2513,-88.0778,-1.72,29.84,11111222 
DISL,ioos:station:DISL:DISL:1,2019-10-06T09:00:00Z,30.2513,-88.0778,-1.72,29.77,11111222 
DISL,ioos:station:DISL:DISL:1,2019-10-06T10:00:00Z,30.2513,-88.0778,-1.72,29.79,11111222 
DISL,ioos:station:DISL:DISL:1,2019-10-06T11:00:00Z,30.2513,-88.0778,-1.72,29.49,11111222 
DISL,ioos:station:DISL:DISL:1,2019-10-06T12:00:00Z,30.2513,-88.0778,-1.72,29.12,11111222 
DISL,ioos:station:DISL:DISL:1,2019-10-06T13:00:00Z,30.2513,-88.0778,-1.72,29.04,11111222 
DISL,ioos:station:DISL:DISL:1,2019-10-06T14:00:00Z,30.2513,-88.0778,-1.72,28.96,11111222 
DISL,ioos:station:DISL:DISL:1,2019-10-06T15:00:00Z,30.2513,-88.0778,-1.72,28.78,11111222 
DISL,ioos:station:DISL:DISL:1,2019-10-06T16:00:00Z,30.2513,-88.0778,-1.72,28.95,11111222 
DISL,ioos:station:DISL:DISL:1,2019-10-06T17:00:00Z,30.2513,-88.0778,-1.72,28.96,11111222 
DISL,ioos:station:DISL:DISL:1,2019-10-06T18:00:00Z,30.2513,-88.0778,-1.72,28.95,11111222 
DISL,ioos:station:DISL:DISL:1,2019-10-06T19:00:00Z,30.2513,-88.0778,-1.72,28.96,11111222 
DISL,ioos:station:DISL:DISL:1,2019-10-06T20:00:00Z,30.2513,-88.0778,-1.72,28.92,11111222 
DISL,ioos:station:DISL:DISL:1,2019-10-06T21:00:00Z,30.2513,-88.0778,-1.72,28.85,11111222 
DISL,ioos:station:DISL:DISL:1,2019-10-06T22:00:00Z,30.2513,-88.0778,-1.72,28.88,11111222 
DISL,ioos:station:DISL:DISL:1,2019-10-06T23:00:00Z,30.2513,-88.0778,-1.72,28.87,11111222 
DISL,ioos:station:DISL:DISL:1,2019-10-07T00:00:00Z,30.2513,-88.0778,-1.72,28.89,11111222 
DISL,ioos:station:DISL:DISL:1,2019-10-07T01:00:00Z,30.2513,-88.0778,-1.72,28.75,11111222 
DISL,ioos:station:DISL:DISL:1,2019-10-07T02:00:00Z,30.2513,-88.0778,-1.72,28.8,11111222 
DISL,ioos:station:DISL:DISL:1,2019-10-07T03:00:00Z,30.2513,-88.0778,-1.72,28.74,11111222 
DISL,ioos:station:DISL:DISL:1,2019-10-07T04:00:00Z,30.2513,-88.0778,-1.72,28.62,11111222 
DISL,ioos:station:DISL:DISL:1,2019-10-07T05:00:00Z,30.2513,-88.0778,-1.72,28.43,11111222 
DISL,ioos:station:DISL:DISL:1,2019-10-07T06:00:00Z,30.2513,-88.0778,-1.72,28.27,11111222 
DISL,ioos:station:DISL:DISL:1,2019-10-07T07:00:00Z,30.2513,-88.0778,-1.72,28.67,11111222 
DISL,ioos:station:DISL:DISL:1,2019-10-07T08:00:00Z,30.2513,-88.0778,-1.72,28.17,11111222 
DISL,ioos:station:DISL:DISL:1,2019-10-07T09:00:00Z,30.2513,-88.0778,-1.72,27.83,11111222 
DISL,ioos:station:DISL:DISL:1,2019-10-07T10:00:00Z,30.2513,-88.0778,-1.72,27.78,11111222 
DISL,ioos:station:DISL:DISL:1,2019-10-07T11:00:00Z,30.2513,-88.0778,-1.72,27.6,11111222 
DISL,ioos:station:DISL:DISL:1,2019-10-07T12:00:00Z,30.2513,-88.0778,-1.72,27.92,11111222 
DISL,ioos:station:DISL:DISL:1,2019-10-07T13:00:00Z,30.2513,-88.0778,-1.72,27.8,11111222 
DISL,ioos:station:DISL:DISL:1,2019-10-07T19:00:00Z,30.2513,-88.0778,-1.72,29.01,11111222 
DISL,ioos:station:DISL:DISL:1,2019-10-07T20:00:00Z,30.2513,-88.0778,-1.72,29.2,11111222 
DISL,ioos:station:DISL:DISL:1,2019-10-07T21:00:00Z,30.2513,-88.0778,-1.72,29.09,11111222 
DISL,ioos:station:DISL:DISL:1,2019-10-07T22:00:00Z,30.2513,-88.0778,-1.72,29.3,11111222 
DISL,ioos:station:DISL:DISL:1,2019-10-07T23:00:00Z,30.2513,-88.0778,-1.72,29.32,11111222 
DISL,ioos:station:DISL:DISL:1,2019-10-08T00:00:00Z,30.2513,-88.0778,-1.72,28.92,11111222 
DISL,ioos:station:DISL:DISL:1,2019-10-08T01:00:00Z,30.2513,-88.0778,-1.72,28.42,11111222 
DISL,ioos:station:DISL:DISL:1,2019-10-08T02:00:00Z,30.2513,-88.0778,-1.72,28.42,11111222 
DISL,ioos:station:DISL:DISL:1,2019-10-08T03:00:00Z,30.2513,-88.0778,-1.72,28.37,11111222 
DISL,ioos:station:DISL:DISL:1,2019-10-08T04:00:00Z,30.2513,-88.0778,-1.72,28.27,11111222 
DISL,ioos:station:DISL:DISL:1,2019-10-08T05:00:00Z,30.2513,-88.0778,-1.72,28.41,11111222 
DISL,ioos:station:DISL:DISL:1,2019-10-08T06:00:00Z,30.2513,-88.0778,-1.72,28.21,11111222 
DISL,ioos:station:DISL:DISL:1,2019-10-08T07:00:00Z,30.2513,-88.0778,-1.72,28.04,11111222 
DISL,ioos:station:DISL:DISL:1,2019-10-08T08:00:00Z,30.2513,-88.0778,-1.72,27.32,11111222 
DISL,ioos:station:DISL:DISL:1,2019-10-08T09:00:00Z,30.2513,-88.0778,-1.72,27.47,11111222 
DISL,ioos:station:DISL:DISL:1,2019-10-08T10:00:00Z,30.2513,-88.0778,-1.72,27.14,11111222 
DISL,ioos:station:DISL:DISL:1,2019-10-08T11:00:00Z,30.2513,-88.0778,-1.72,27.3,11111222 
DISL,ioos:station:DISL:DISL:1,2019-10-08T12:00:00Z,30.2513,-88.0778,-1.72,27.05,11111222 
DISL,ioos:station:DISL:DISL:1,2019-10-08T13:00:00Z,30.2513,-88.0778,-1.72,26.83,11111222 
DISL,ioos:station:DISL:DISL:1,2019-10-08T14:00:00Z,30.2513,-88.0778,-1.72,26.67,11111222 
DISL,ioos:station:DISL:DISL:1,2019-10-08T15:00:00Z,30.2513,-88.0778,-1.72,26.46,11111222 
DISL,ioos:station:DISL:DISL:1,2019-10-08T16:00:00Z,30.2513,-88.0778,-1.72,26.26,11111222 
DISL,ioos:station:DISL:DISL:1,2019-10-08T17:00:00Z,30.2513,-88.0778,-1.72,26.64,11111222 
DISL,ioos:station:DISL:DISL:1,2019-10-08T18:00:00Z,30.2513,-88.0778,-1.72,26.91,11111222 
DISL,ioos:station:DISL:DISL:1,2019-10-08T19:00:00Z,30.2513,-88.0778,-1.72,27.28,11111222 
DISL,ioos:station:DISL:DISL:1,2019-10-08T20:00:00Z,30.2513,-88.0778,-1.72,27.49,11111222 
DISL,ioos:station:DISL:DISL:1,2019-10-08T21:00:00Z,30.2513,-88.0778,-1.72,28.06,11111222 
DISL,ioos:station:DISL:DISL:1,2019-10-08T22:00:00Z,30.2513,-88.0778,-1.72,28.59,11111222 
DISL,ioos:station:DISL:DISL:1,2019-10-08T23:00:00Z,30.2513,-88.0778,-1.72,28.3,11111222 
DISL,ioos:station:DISL:DISL:1,2019-10-09T00:00:00Z,30.2513,-88.0778,-1.72,28.31,11111222 
DISL,ioos:station:DISL:DISL:1,2019-10-09T01:00:00Z,30.2513,-88.0778,-1.72,28.14,11111222 
DISL,ioos:station:DISL:DISL:1,2019-10-09T02:00:00Z,30.2513,-88.0778,-1.72,27.84,11111222 
DISL,ioos:station:DISL:DISL:1,2019-10-09T03:00:00Z,30.2513,-88.0778,-1.72,27.89,11111222 
DISL,ioos:station:DISL:DISL:1,2019-10-09T04:00:00Z,30.2513,-88.0778,-1.72,27.5,11111222 
DISL,ioos:station:DISL:DISL:1,2019-10-09T05:00:00Z,30.2513,-88.0778,-1.72,27.32,11111222 
DISL,ioos:station:DISL:DISL:1,2019-10-09T06:00:00Z,30.2513,-88.0778,-1.72,27.27,11111222 
DISL,ioos:station:DISL:DISL:1,2019-10-09T07:00:00Z,30.2513,-88.0778,-1.72,27.27,11111222 
DISL,ioos:station:DISL:DISL:1,2019-10-09T08:00:00Z,30.2513,-88.0778,-1.72,27.29,11111222 
DISL,ioos:station:DISL:DISL:1,2019-10-09T09:00:00Z,30.2513,-88.0778,-1.72,27.13,11111222 
DISL,ioos:station:DISL:DISL:1,2019-10-09T10:00:00Z,30.2513,-88.0778,-1.72,27.04,11111222 
DISL,ioos:station:DISL:DISL:1,2019-10-09T11:00:00Z,30.2513,-88.0778,-1.72,27.17,11111222 
DISL,ioos:station:DISL:DISL:1,2019-10-09T12:00:00Z,30.2513,-88.0778,-1.72,27.5,11111222 
DISL,ioos:station:DISL:DISL:1,2019-10-09T13:00:00Z,30.2513,-88.0778,-1.72,27.4,11111222 
DISL,ioos:station:DISL:DISL:1,2019-10-09T14:00:00Z,30.2513,-88.0778,-1.72,27.43,11111222 
DISL,ioos:station:DISL:DISL:1,2019-10-09T15:00:00Z,30.2513,-88.0778,-1.72,26.74,11111222 
DISL,ioos:station:DISL:DISL:1,2019-10-09T16:00:00Z,30.2513,-88.0778,-1.72,26.83,11111222 
DISL,ioos:station:DISL:DISL:1,2019-10-09T17:00:00Z,30.2513,-88.0778,-1.72,26.91,11111222 
DISL,ioos:station:DISL:DISL:1,2019-10-09T18:00:00Z,30.2513,-88.0778,-1.72,27.08,11111222 
DISL,ioos:station:DISL:DISL:1,2019-10-09T19:00:00Z,30.2513,-88.0778,-1.72,27.86,11111222 
DISL,ioos:station:DISL:DISL:1,2019-10-09T20:00:00Z,30.2513,-88.0778,-1.72,28.03,11111222 
DISL,ioos:station:DISL:DISL:1,2019-10-09T21:00:00Z,30.2513,-88.0778,-1.72,28.24,11111222 
DISL,ioos:station:DISL:DISL:1,2019-10-09T22:00:00Z,30.2513,-88.0778,-1.72,27.87,11111222 
DISL,ioos:station:DISL:DISL:1,2019-10-09T23:00:00Z,30.2513,-88.0778,-1.72,27.75,11111222 
DISL,ioos:station:DISL:DISL:1,2019-10-10T00:00:00Z,30.2513,-88.0778,-1.72,27.7,11111222 
DISL,ioos:station:DISL:DISL:1,2019-10-10T03:00:00Z,30.2513,-88.0778,-1.72,27.71,11111222 
DISL,ioos:station:DISL:DISL:1,2019-10-10T04:00:00Z,30.2513,-88.0778,-1.72,27.7,11111222 
DISL,ioos:station:DISL:DISL:1,2019-10-10T05:00:00Z,30.2513,-88.0778,-1.72,27.66,11111222 
DISL,ioos:station:DISL:DISL:1,2019-10-10T06:00:00Z,30.2513,-88.0778,-1.72,27.83,11111222 
DISL,ioos:station:DISL:DISL:1,2019-10-10T07:00:00Z,30.2513,-88.0778,-1.72,27.83,11111222 
DISL,ioos:station:DISL:DISL:1,2019-10-10T08:00:00Z,30.2513,-88.0778,-1.72,27.8,11111222 
DISL,ioos:station:DISL:DISL:1,2019-10-10T09:00:00Z,30.2513,-88.0778,-1.72,27.79,11111222 
DISL,ioos:station:DISL:DISL:1,2019-10-10T10:00:00Z,30.2513,-88.0778,-1.72,27.83,11111222 
DISL,ioos:station:DISL:DISL:1,2019-10-10T11:00:00Z,30.2513,-88.0778,-1.72,27.76,11111222 
DISL,ioos:station:DISL:DISL:1,2019-10-10T12:00:00Z,30.2513,-88.0778,-1.72,27.75,11111222 
DISL,ioos:station:DISL:DISL:1,2019-10-10T13:00:00Z,30.2513,-88.0778,-1.72,27.6,11111222 
DISL,ioos:station:DISL:DISL:1,2019-10-10T14:00:00Z,30.2513,-88.0778,-1.72,27.64,11111222 
DISL,ioos:station:DISL:DISL:1,2019-10-10T15:00:00Z,30.2513,-88.0778,-1.72,27.66,11111222 
DISL,ioos:station:DISL:DISL:1,2019-10-10T16:00:00Z,30.2513,-88.0778,-1.72,27.7,11111222 
DISL,ioos:station:DISL:DISL:1,2019-10-10T17:00:00Z,30.2513,-88.0778,-1.72,27.82,11111222 
DISL,ioos:station:DISL:DISL:1,2019-10-10T18:00:00Z,30.2513,-88.0778,-1.72,27.81,11111222 
DISL,ioos:station:DISL:DISL:1,2019-10-10T19:00:00Z,30.2513,-88.0778,-1.72,27.98,11111222 
DISL,ioos:station:DISL:DISL:1,2019-10-10T20:00:00Z,30.2513,-88.0778,-1.72,28.04,11111222 
DISL,ioos:station:DISL:DISL:1,2019-10-10T21:00:00Z,30.2513,-88.0778,-1.72,28.15,11111222 
DISL,ioos:station:DISL:DISL:1,2019-10-10T22:00:00Z,30.2513,-88.0778,-1.72,28.14,11111222 
DISL,ioos:station:DISL:DISL:1,2019-10-10T23:00:00Z,30.2513,-88.0778,-1.72,28.07,11111222 
DISL,ioos:station:DISL:DISL:1,2019-10-11T00:00:00Z,30.2513,-88.0778,-1.72,28.11,11111222 
DISL,ioos:station:DISL:DISL:1,2019-10-11T01:00:00Z,30.2513,-88.0778,-1.72,28.15,11111222 
DISL,ioos:station:DISL:DISL:1,2019-10-11T02:00:00Z,30.2513,-88.0778,-1.72,28.11,11111222 
DISL,ioos:station:DISL:DISL:1,2019-10-11T03:00:00Z,30.2513,-88.0778,-1.72,27.86,11111222 
DISL,ioos:station:DISL:DISL:1,2019-10-11T04:00:00Z,30.2513,-88.0778,-1.72,27.85,11111222 
DISL,ioos:station:DISL:DISL:1,2019-10-11T05:00:00Z,30.2513,-88.0778,-1.72,27.83,11111222 
DISL,ioos:station:DISL:DISL:1,2019-10-11T06:00:00Z,30.2513,-88.0778,-1.72,27.83,11111222 
DISL,ioos:station:DISL:DISL:1,2019-10-11T07:00:00Z,30.2513,-88.0778,-1.72,27.5,11111222 
DISL,ioos:station:DISL:DISL:1,2019-10-11T08:00:00Z,30.2513,-88.0778,-1.72,27.28,11111222 
DISL,ioos:station:DISL:DISL:1,2019-10-11T09:00:00Z,30.2513,-88.0778,-1.72,27.14,11111222 
DISL,ioos:station:DISL:DISL:1,2019-10-11T10:00:00Z,30.2513,-88.0778,-1.72,27.44,11111222 
DISL,ioos:station:DISL:DISL:1,2019-10-11T11:00:00Z,30.2513,-88.0778,-1.72,27.46,11111222 
DISL,ioos:station:DISL:DISL:1,2019-10-11T12:00:00Z,30.2513,-88.0778,-1.72,27.32,11111222 
DISL,ioos:station:DISL:DISL:1,2019-10-11T13:00:00Z,30.2513,-88.0778,-1.72,27.26,11111222 
DISL,ioos:station:DISL:DISL:1,2019-10-11T14:00:00Z,30.2513,-88.0778,-1.72,27.29,11111222 
DISL,ioos:station:DISL:DISL:1,2019-10-11T15:00:00Z,30.2513,-88.0778,-1.72,27.29,11111222 
DISL,ioos:station:DISL:DISL:1,2019-10-11T16:00:00Z,30.2513,-88.0778,-1.72,27.33,11111222 
DISL,ioos:station:DISL:DISL:1,2019-10-11T17:00:00Z,30.2513,-88.0778,-1.72,27.43,11111222 
DISL,ioos:station:DISL:DISL:1,2019-10-11T18:00:00Z,30.2513,-88.0778,-1.72,27.68,11111222 
DISL,ioos:station:DISL:DISL:1,2019-10-11T19:00:00Z,30.2513,-88.0778,-1.72,27.72,11111222 
DISL,ioos:station:DISL:DISL:1,2019-10-11T20:00:00Z,30.2513,-88.0778,-1.72,27.85,11111222 
DISL,ioos:station:DISL:DISL:1,2019-10-11T21:00:00Z,30.2513,-88.0778,-1.72,27.8,11111222 
DISL,ioos:station:DISL:DISL:1,2019-10-11T22:00:00Z,30.2513,-88.0778,-1.72,27.68,11111222 
DISL,ioos:station:DISL:DISL:1,2019-10-11T23:00:00Z,30.2513,-88.0778,-1.72,27.66,11111222 
DISL,ioos:station:DISL:DISL:1,2019-10-12T00:00:00Z,30.2513,-88.0778,-1.72,27.62,11111222 
DISL,ioos:station:DISL:DISL:1,2019-10-12T01:00:00Z,30.2513,-88.0778,-1.72,27.61,11111222 
DISL,ioos:station:DISL:DISL:1,2019-10-12T02:00:00Z,30.2513,-88.0778,-1.72,27.61,11111222 
DISL,ioos:station:DISL:DISL:1,2019-10-12T03:00:00Z,30.2513,-88.0778,-1.72,27.61,11111222 
DISL,ioos:station:DISL:DISL:1,2019-10-12T15:00:00Z,30.2513,-88.0778,-1.72,26.5,11111222 
DISL,ioos:station:DISL:DISL:1,2019-10-12T16:00:00Z,30.2513,-88.0778,-1.72,26.55,11111222 
DISL,ioos:station:DISL:DISL:1,2019-10-12T17:00:00Z,30.2513,-88.0778,-1.72,26.56,11111222 
DISL,ioos:station:DISL:DISL:1,2019-10-12T18:00:00Z,30.2513,-88.0778,-1.72,26.54,11111222 
DISL,ioos:station:DISL:DISL:1,2019-10-12T19:00:00Z,30.2513,-88.0778,-1.72,26.39,11111222 